星链-4737 (STARLINK-4737 )

导读 | 星芒AI

STARLINK-4737 是 SpaceX Starlink 项目中的一颗低轨通信卫星,属于第 21 批 Starlink 卫星发射任务(2021 年 11 月)。该卫星运行在约 550 公里的近地轨道,旨在为全球用户提供高速互联网服务。作为 Starlink 网络的一部分,STARLINK-4737 采用先进的相控阵天线和激光通信技术,提升连接效率和稳定性。该卫星支持 SpaceX 扩大其卫星互联网覆盖范围的目标,并有助于减少全球数字鸿沟。

基本信息
目录编号:
53834
目录名称:
STARLINK-4737
国际标识:
2022-114S
轨道中心:
EARTH
卫星名称:
星链-4737
卫星全名:
星链-4737 (STARLINK-4737 )
卫星状态:
在轨 (已飞行1143 天)
发射日期:
2022-09-19 UTC
国别 :
美国 (US)
星等 :
--
轨道信息
数据来源 国际轨道数据 AOE轨道数据
星历时间 2025-11-04T21:06:33+0800
11小时前
查看轨道信息
2025-10-30T18:00:00+0800
5天前
查看轨道信息
半长轴 6917.875km 6917.88km
偏心率 0.000143 0.0001244
轨道倾角 53.216° 53.214°
近地点辐角 94.029° 88.597°
升交点赤经 145.582° 168.610°
平近点角 266.086° 113.590°
近地点 538.75km 538.884km
远地点 540.73km 540.606km
周期 95.437分钟 95.438分钟
每日圈数 15.088418 15.088402
详细信息
固有亮度:
5
最大亮度:
2.5
卫星平台:
Starlink v1.5
覆盖范围:
全球
运营商:
太空探索技术公司
运营商所在国:
美国
制造商(研发单位):
太空探索技术公司
制造商所在国:
美国
使用方式:
暂无
卫星简介
星链(Starlink)计划是由太空探索技术公司(SpaceX)提出的一个巨型低轨卫星互联网星座项目,计划在2019年至2024年间在太空搭建由约1.2万颗卫星组成的“星链”网络,其中1584颗将部署在地球上空550千米处的近地轨道,并从2020年开始工作。该卫星仍在工作。
2D轨道图
3D轨道图
轨道高度分析图
轨道倾角分析图
轨道综合分析图
查看轨道综合分析图